VHMSE VHHH-WSSS

Flight info

Callsign VHMSE
Flight time N/A
Altitude 41000
Route PECAN V12 EPDOS L642 EPKAL/K0883F430 L642 ESPOB/N0475F430 Q801 ESBUM/N0480F410 Q802 ELALO ELALO1B
Aircraft C700/M-SBDGHM1RWXY/LB2

Departure

Time 2026-05-05 07:29
Airport Hong Kong International Airport (VHHH)

Arrival

Time N/A
Airport Singapore Changi Airport (WSSS)
Time Latitude Longitude Altitude Speed Heading
2026-05-05 07:05 22.31744 113.92934 28 ft 0 kts 81°
2026-05-05 07:16 22.31739 113.92907 28 ft 4 kts 75°
2026-05-05 07:16 22.31732 113.92889 28 ft 2 kts 54°
2026-05-05 07:16 22.31722 113.92879 28 ft 2 kts 21°
2026-05-05 07:16 22.31711 113.92878 29 ft 2 kts 348°
2026-05-05 07:17 22.31704 113.92881 29 ft 0 kts 337°
2026-05-05 07:18 22.31715 113.92876 29 ft 7 kts 339°
2026-05-05 07:18 22.31767 113.92846 29 ft 0 kts 332°
2026-05-05 07:19 22.31813 113.92837 27 ft 13 kts 350°
2026-05-05 07:19 22.31873 113.92751 28 ft 17 kts 253°
2026-05-05 07:19 22.31825 113.92627 27 ft 20 kts 248°
2026-05-05 07:19 22.31776 113.92472 25 ft 24 kts 253°
2026-05-05 07:20 22.31761 113.92432 25 ft 11 kts 249°
2026-05-05 07:20 22.31722 113.92302 27 ft 17 kts 249°
2026-05-05 07:20 22.31678 113.92169 24 ft 21 kts 251°
2026-05-05 07:20 22.31671 113.92147 25 ft 0 kts 250°
2026-05-05 07:21 22.31651 113.92090 26 ft 24 kts 250°
2026-05-05 07:21 22.31566 113.91832 26 ft 41 kts 250°
2026-05-05 07:21 22.31483 113.91571 29 ft 29 kts 251°
2026-05-05 07:21 22.31415 113.91359 32 ft 30 kts 252°
2026-05-05 07:22 22.31345 113.91141 31 ft 32 kts 250°
2026-05-05 07:22 22.31269 113.90903 29 ft 34 kts 251°
2026-05-05 07:22 22.31190 113.90654 27 ft 35 kts 251°
2026-05-05 07:22 22.31110 113.90409 28 ft 35 kts 250°
2026-05-05 07:23 22.31054 113.90237 29 ft 17 kts 250°
2026-05-05 07:23 22.31025 113.90147 27 ft 17 kts 251°
2026-05-05 07:23 22.31015 113.90116 27 ft 2 kts 250°
2026-05-05 07:23 22.30992 113.90039 27 ft 15 kts 264°
2026-05-05 07:24 22.31036 113.89991 28 ft 0 kts 344°
2026-05-05 07:26 22.31037 113.89990 28 ft 3 kts 344°
2026-05-05 07:26 22.31128 113.89957 28 ft 15 kts 349°
2026-05-05 07:26 22.31149 113.89970 28 ft 0 kts 73°
2026-05-05 07:28 22.31183 113.90077 26 ft 45 kts 70°
2026-05-05 07:28 22.31401 113.90737 29 ft 139 kts 70°
2026-05-05 07:29 22.31790 113.92005 208 ft 212 kts 72°
2026-05-05 07:29 22.32287 113.93585 1313 ft 233 kts 71°
2026-05-05 07:29 22.32875 113.95247 2845 ft 240 kts 70°
2026-05-05 07:29 22.33445 113.97042 3897 ft 275 kts 77°
2026-05-05 07:30 22.33754 113.99052 3966 ft 257 kts 84°
2026-05-05 07:30 22.34272 114.02477 3956 ft 209 kts 81°
2026-05-05 07:30 22.34404 114.03962 3950 ft 189 kts 97°
2026-05-05 07:31 22.34140 114.05292 3945 ft 174 kts 111°
2026-05-05 07:31 22.33636 114.06399 3953 ft 158 kts 126°
2026-05-05 07:31 22.32916 114.07327 3969 ft 175 kts 139°
2026-05-05 07:31 22.31846 114.08144 4218 ft 203 kts 155°
2026-05-05 07:32 22.30474 114.08619 4877 ft 208 kts 172°
2026-05-05 07:32 22.28981 114.08691 5514 ft 226 kts 183°
2026-05-05 07:32 22.27368 114.08685 6296 ft 233 kts 181°
2026-05-05 07:32 22.25730 114.08695 7150 ft 237 kts 182°
2026-05-05 07:33 22.24039 114.08686 7811 ft 252 kts 183°